This is the latest recevied weather packets stored in our database for station/object KD7AWQ. If no packets are shown the sender has not sent any weather packets the latest 10 day(s).
| Time | Temp. | Humidity | Pressure | Rain* | Wind** | Luminosity | Snow |
|---|---|---|---|---|---|---|---|
| 1777754413 | 22.78° C | 30% | 1186.9 hPa | 0 mm | - | 1030 W/m² | - |
| 1777754109 | 21.67° C | 32% | 1186.6 hPa | 0 mm | - | 1036 W/m² | - |
| 1777753806 | 21.67° C | 33% | 1187 hPa | 0 mm | - | 1043 W/m² | - |
| 1777753502 | 21.67° C | 33% | 1186.9 hPa | 0 mm | - | 1048 W/m² | - |
| 1777753201 | 21.67° C | 33% | 1186.9 hPa | 0 mm | - | 1056 W/m² | - |
| 1777752896 | 21.67° C | 33% | 1187 hPa | 0 mm | - | 1061 W/m² | - |
| 1777752593 | 21.67° C | 34% | 1187.1 hPa | 0 mm | - | 1065 W/m² | - |
| 1777752289 | 21.11° C | 34% | 1186.9 hPa | 0 mm | - | 1069 W/m² | - |
| 1777751987 | 21.67° C | 34% | 1187 hPa | 0 mm | - | 1075 W/m² | - |
| 1777751684 | 21.11° C | 34% | 1187.1 hPa | 0 mm | - | 1078 W/m² | - |
| 1777751380 | 20.56° C | 35% | 1187.3 hPa | 0 mm | - | 1081 W/m² | - |
| 1777751077 | 21.11° C | 34% | 1187.5 hPa | 0 mm | - | 1081 W/m² | - |
| 1777750773 | 21.11° C | 35% | 1187.4 hPa | 0 mm | - | 1083 W/m² | - |
| 1777750470 | 20.56° C | 35% | 1187.7 hPa | 0 mm | - | 1087 W/m² | - |
| 1777750166 | 21.11° C | 35% | 1187.8 hPa | 0 mm | - | 1086 W/m² | - |
| 1777749863 | 21.11° C | 34% | 1187.3 hPa | 0 mm | - | 1086 W/m² | - |
| 1777749560 | 20.56° C | 36% | 1187.7 hPa | 0 mm | - | 1086 W/m² | - |
| 1777749258 | 20.56° C | 36% | 1187.9 hPa | 0 mm | - | 1084 W/m² | - |
| 1777748955 | 20.56° C | 36% | 1187.9 hPa | 0 mm | - | 1083 W/m² | - |
| 1777748652 | 20.56° C | 36% | 1187.9 hPa | 0 mm | - | 1083 W/m² | - |
| 1777748348 | 20.56° C | 36% | 1188.1 hPa | 0 mm | - | 1079 W/m² | - |
| 1777748044 | 21.11° C | 35% | 1187.9 hPa | 0 mm | - | 1080 W/m² | - |
| 1777747741 | 20° C | 37% | 1188.3 hPa | 0 mm | - | 1072 W/m² | - |
| 1777747436 | 20.56° C | 37% | 1188.3 hPa | 0 mm | - | 1069 W/m² | - |
| 1777747133 | 20° C | 38% | 1188.3 hPa | 0 mm | - | 1065 W/m² | - |
* Rain latest hour (hover to see other rain measurements)
** Current wind speed in m/s (hover to see current wind gust speed)